Regional Weather Roundup
Issued by NWS Jackson, KY

Home | Current Version | Previous Version | Text Only | Print | Product List | Glossary Off
Versions: 1 2 3 4 5 6 7 8 9 10 11 12 13 14 15 16 17 18 19 20 21 22 23 24 25 26 27 28 29 30 31 32 33 34 35 36 37 38 39 40 41 42 43 44 45 46 47 48 49 50

955
ASUS43 KJKL 290910
RWRJKL

EAST KENTUCKY HOURLY WEATHER ROUNDUP
NATIONAL WEATHER SERVICE JACKSON KY
500 AM EDT THU SEP 29 2016

NOTE: "FAIR" INDICATES FEW OR NO CLOUDS BELOW 12,000 FEET WITH
NO SIGNIFICANT WEATHER AND/OR OBSTRUCTIONS TO VISIBILITY.

* THESE REPORTS ARE NOT UNDER NWS QUALITY CONTROL AND MAY NOT
  REPORT WEATHER SUCH AS PRECIPITATION AND FOG.

KYZ079-080-083-085-087-088-110-112-115-119-120-291000
...EASTERN KENTUCKY...

CITY           SKY/WX    TMP DP  RH WIND       PRES   REMARKS
JACKSON        CLOUDY    56  55  97 CALM      29.97S
LONDON         CLEAR     52  49  89 W3        29.99S
SOMERSET*      CLOUDY    52  52 100 CALM      30.02S
MONTICELLO*    CLOUDY    55  54  96 CALM      30.02S
WILLIAMSBURG*  CLOUDY    52  52 100 CALM      30.00S
MIDDLESBORO*   RAIN      58  58  99 CALM      29.98S
HARLAN APT*    CLOUDY    55  55 100 CALM      29.97F VSB 1/2
PIKE CO APT*   RAIN      56  56 100 W3        29.98R
MOREHEAD APT*  CLOUDY    50  48  93 CALM      30.00S FOG
ASHLAND*       CLOUDY    57  54  88 CALM      29.96S
$$

KYZ035-036-041-042-044-050-067-078-099-291000
...CENTRAL KENTUCKY...

CITY           SKY/WX    TMP DP  RH WIND       PRES   REMARKS
MT STERLING*   CLOUDY    52  52 100 CALM      30.01R
FLEMING/MASON* CLOUDY    51  51  99 CALM      30.00S FOG
DANVILLE*      CLOUDY    50  50 100 CALM      30.01S
LEXINGTON      CLOUDY    50  48  93 CALM      30.00R
FRANKFORT      CLEAR     50  47  89 SE3       29.98R
LOUISVILLE     MOCLDY    55  49  80 W6        29.99S
LEBANON*         N/A     54  50  87 CALM      30.00S
GLASGOW*       PTCLDY    49  49 100 CALM      30.01S
BOWLING GREEN  CLEAR     51  47  86 SW3       30.03S
$$

KYZ091>093-OHZ055-061-077-WVZ005-015-034-035-042-291000
...SOUTHERN OHIO/WEST VIRGINIA...

CITY           SKY/WX    TMP DP  RH WIND       PRES   REMARKS
COVINGTON      CLOUDY    52  52 100 CALM      29.99R FOG
COLUMBUS       CLOUDY    57  57 100 SE5       29.97S
DAYTON         FOG       52  52 100 N5        29.98S VSB 1/4
WILMINGTON     FOG       52  52 100 S5        29.98R VSB 1/2
HUNTINGTON     CLOUDY    58  56  93 CALM      29.97S FOG
CHARLESTON     CLOUDY    57  54  89 CALM      29.99R
PINEVILLE*     MOCLDY    55  50  86 MISG      30.03S
BECKLEY        PTCLDY    53  49  86 E5        30.01S
BLUEFIELD      PTCLDY    50  47  89 E5        30.01F
LOGAN CO APT*  CLOUDY    57  54  88 CALM      29.98S
$$

VAZ002-007-008-TNZ017-027-036-066-071-291000
...SOUTHWEST VIRGINIA/EAST TENNESSEE...

CITY           SKY/WX    TMP DP  RH WIND       PRES   REMARKS
WISE*          CLOUDY    52  52 100 CALM      30.01S
JONESVILLE*    LGT RAIN  57  57 100 CALM      29.98R
ABINGDON*      CLOUDY    57  51  80 E3        29.97S
BRISTOL        CLOUDY    58  52  80 CALM      29.97S
MORRISTOWN*    PTSUNNY   59  54  82 CALM      29.95S
SEVIERVILLE*   SUNNY     54  50  87 CALM      29.95F
KNOXVILLE      CLOUDY    62  55  77 NW7       29.95S
OAK RIDGE      CLOUDY    61  54  77 CALM      29.98S
CROSSVILLE     MOCLDY    53  50  89 N5        30.01S
NASHVILLE      PTCLDY    53  45  74 NW6       30.04S
$$

...KEY TO REMARKS...
VSB - VISIBILITY IN MILES
WCI - WIND CHILL INDEX
HX  - HEAT INDEX

$$




USA.gov is the U.S. government's official web portal to all federal, state and local government web resources and services.